• In Sweden
  • List of Countries
  • For 7 days
  • Water Temperature
  • Satellite Maps
  • Weather Map
  • Weather Widgets
  • user-avatar
    Login

    Hourly Weather Pekarevo

    Today, 21 June, Thursday

    Time Temperature Precipitation Wind Pressure Humidity
    00:00 +13°C° 0 mm 2 mps 735 mmHg 83%
    01:00 +12°C° 0 mm 2 mps 736 mmHg 85%
    02:00 +9°C° 0 mm 2 mps 735 mmHg 88%
    03:00 +10°C° 0 mm 2 mps 736 mmHg 86%
    04:00 +12°C° 0 mm 2 mps 736 mmHg 84%
    05:00 +11°C° 0 mm 3 mps 736 mmHg 82%
    06:00 +13°C° 0 mm 3 mps 736 mmHg 76%
    07:00 +16°C° 0 mm 3 mps 736 mmHg 70%
    08:00 +18°C° 0 mm 3 mps 736 mmHg 64%
    09:00 +20°C° 0 mm 4 mps 736 mmHg 61%
    10:00 +21°C° 0 mm 4 mps 736 mmHg 59%
    11:00 +23°C° 0 mm 5 mps 736 mmHg 56%
    12:00 +25°C° 0 mm 5 mps 735 mmHg 55%
    13:00 +25°C° 0 mm 5 mps 735 mmHg 54%
    14:00 +26°C° 0 mm 5 mps 735 mmHg 53%
    15:00 +25°C° 0 mm 4 mps 735 mmHg 56%
    16:00 +25°C° 0 mm 4 mps 735 mmHg 60%
    17:00 +25°C° 0 mm 3 mps 734 mmHg 64%
    18:00 +22°C° 0 mm 3 mps 734 mmHg 70%
    19:00 +21°C° 0 mm 3 mps 734 mmHg 77%
    20:00 +19°C° 0 mm 2 mps 734 mmHg 84%
    21:00 +18°C° 0 mm 2 mps 734 mmHg 87%
    22:00 +17°C° 0 mm 2 mps 734 mmHg 90%
    23:00 +17°C° 0 mm 3 mps 734 mmHg 93%

    Tomorrow, 22 June, Friday

    Time Temperature Precipitation Wind Pressure Humidity
    00:00 +17°C° 0 mm 3 mps 733 mmHg 92%
    01:00 +17°C° 0 mm 3 mps 733 mmHg 92%
    02:00 +17°C° 0 mm 3 mps 733 mmHg 91%
    03:00 +17°C° 0.1 mm 4 mps 732 mmHg 90%
    04:00 +18°C° 0.1 mm 4 mps 732 mmHg 90%
    05:00 +17°C° 0.1 mm 5 mps 732 mmHg 89%
    06:00 +19°C° 0.1 mm 5 mps 732 mmHg 86%
    07:00 +21°C° 0.1 mm 5 mps 731 mmHg 83%
    08:00 +22°C° 0.1 mm 6 mps 731 mmHg 80%
    09:00 +23°C° 0.4 mm 6 mps 731 mmHg 79%
    10:00 +24°C° 0.4 mm 6 mps 731 mmHg 77%
    11:00 +26°C° 0.4 mm 6 mps 731 mmHg 76%
    12:00 +24°C° 1 mm 6 mps 731 mmHg 80%
    13:00 +24°C° 1 mm 6 mps 731 mmHg 84%
    14:00 +23°C° 1 mm 6 mps 731 mmHg 88%
    15:00 +22°C° 0.9 mm 5 mps 731 mmHg 90%
    16:00 +21°C° 0.9 mm 4 mps 731 mmHg 92%
    17:00 +19°C° 0.9 mm 3 mps 732 mmHg 93%
    18:00 +18°C° 0.2 mm 3 mps 732 mmHg 94%
    19:00 +17°C° 0.2 mm 3 mps 732 mmHg 94%
    20:00 +16°C° 0.2 mm 2 mps 732 mmHg 94%
    21:00 +15°C° 0 mm 2 mps 733 mmHg 94%
    22:00 +14°C° 0 mm 2 mps 733 mmHg 95%
    23:00 +13°C° 0 mm 2 mps 733 mmHg 95%

    Day after tomorrow, 23 June, Saturday

    Time Temperature Precipitation Wind Pressure Humidity
    00:00 +13°C° 0 mm 2 mps 734 mmHg 94%
    01:00 +12°C° 0 mm 2 mps 734 mmHg 93%
    02:00 +12°C° 0 mm 1 mps 734 mmHg 92%
    03:00 +12°C° 0 mm 1 mps 734 mmHg 91%
    04:00 +12°C° 0 mm 2 mps 734 mmHg 90%
    05:00 +12°C° 0 mm 2 mps 734 mmHg 89%
    06:00 +13°C° 0.1 mm 2 mps 734 mmHg 89%
    07:00 +13°C° 0.1 mm 2 mps 734 mmHg 89%
    08:00 +13°C° 0.1 mm 2 mps 734 mmHg 89%
    09:00 +13°C° 0.3 mm 2 mps 734 mmHg 90%
    10:00 +13°C° 0.3 mm 2 mps 734 mmHg 91%
    11:00 +12°C° 0.3 mm 3 mps 733 mmHg 92%
    12:00 +12°C° 0.5 mm 3 mps 733 mmHg 92%
    13:00 +12°C° 0.5 mm 3 mps 733 mmHg 92%
    14:00 +12°C° 0.5 mm 4 mps 732 mmHg 91%
    15:00 +12°C° 2.8 mm 4 mps 732 mmHg 93%
    16:00 +11°C° 2.8 mm 4 mps 731 mmHg 95%
    17:00 +10°C° 2.8 mm 5 mps 731 mmHg 96%
    18:00 +10°C° 1.6 mm 4 mps 731 mmHg 96%
    19:00 +10°C° 1.6 mm 4 mps 731 mmHg 96%
    20:00 +8°C° 1.6 mm 4 mps 731 mmHg 96%
    21:00 +8°C° 1.3 mm 4 mps 730 mmHg 97%
    22:00 +8°C° 1.3 mm 4 mps 730 mmHg 97%
    23:00 +9°C° 1.3 mm 3 mps 730 mmHg 97%

    24 June, Sunday

    Time Temperature Precipitation Wind Pressure Humidity
    00:00 +9°C° 1.2 mm 3 mps 730 mmHg 97%
    01:00 +9°C° 1.2 mm 3 mps 730 mmHg 97%
    02:00 +9°C° 1.2 mm 3 mps 730 mmHg 97%
    03:00 +9°C° 0.1 mm 3 mps 730 mmHg 97%
    04:00 +9°C° 0.1 mm 3 mps 730 mmHg 97%
    05:00 +9°C° 0.1 mm 3 mps 730 mmHg 97%
    06:00 +9°C° 0.4 mm 3 mps 731 mmHg 97%
    07:00 +9°C° 0.4 mm 3 mps 731 mmHg 97%
    08:00 +9°C° 0.4 mm 3 mps 731 mmHg 97%
    09:00 +10°C° 0.4 mm 3 mps 732 mmHg 94%
    10:00 +11°C° 0.4 mm 3 mps 732 mmHg 90%
    11:00 +12°C° 0.4 mm 4 mps 733 mmHg 87%
    12:00 +14°C° 0.1 mm 4 mps 733 mmHg 77%
    13:00 +17°C° 0.1 mm 4 mps 733 mmHg 68%
    14:00 +18°C° 0.1 mm 4 mps 734 mmHg 58%
    15:00 +18°C° 0 mm 4 mps 734 mmHg 59%
    16:00 +19°C° 0 mm 3 mps 735 mmHg 59%
    17:00 +19°C° 0 mm 3 mps 735 mmHg 60%
    18:00 +17°C° 0 mm 2 mps 735 mmHg 68%
    19:00 +16°C° 0 mm 2 mps 735 mmHg 77%
    20:00 +14°C° 0 mm 2 mps 735 mmHg 85%
    21:00 +13°C° 0 mm 2 mps 736 mmHg 88%
    22:00 +12°C° 0 mm 2 mps 736 mmHg 91%
    23:00 +10°C° 0 mm 2 mps 736 mmHg 95%

    25 June, Monday

    Time Temperature Precipitation Wind Pressure Humidity
    00:00 +10°C° 0 mm 2 mps 737 mmHg 95%
    01:00 +10°C° 0 mm 2 mps 737 mmHg 96%
    02:00 +9°C° 0 mm 2 mps 737 mmHg 96%
    03:00 +10°C° 0 mm 2 mps 737 mmHg 96%
    04:00 +10°C° 0 mm 2 mps 737 mmHg 95%
    05:00 +10°C° 0 mm 2 mps 738 mmHg 95%
    06:00 +13°C° 0 mm 2 mps 738 mmHg 88%
    07:00 +15°C° 0 mm 2 mps 738 mmHg 81%
    08:00 +17°C° 0 mm 2 mps 738 mmHg 74%
    09:00 +18°C° 0 mm 3 mps 739 mmHg 68%
    10:00 +19°C° 0 mm 3 mps 739 mmHg 62%
    11:00 +20°C° 0 mm 3 mps 739 mmHg 55%
    12:00 +21°C° 0 mm 3 mps 739 mmHg 55%
    13:00 +21°C° 0 mm 3 mps 739 mmHg 54%
    14:00 +21°C° 0 mm 3 mps 739 mmHg 53%
    15:00 +21°C° 0.2 mm 3 mps 739 mmHg 58%
    16:00 +20°C° 0.2 mm 3 mps 739 mmHg 63%
    17:00 +20°C° 0.2 mm 2 mps 739 mmHg 68%
    18:00 +18°C° 0.1 mm 2 mps 739 mmHg 74%
    19:00 +18°C° 0.1 mm 1 mps 739 mmHg 80%
    20:00 +15°C° 0.1 mm 1 mps 739 mmHg 86%
    21:00 +14°C° 0 mm 1 mps 739 mmHg 89%
    22:00 +13°C° 0 mm 1 mps 740 mmHg 91%
    23:00 +12°C° 0 mm 1 mps 740 mmHg 94%

    26 June, Tuesday

    Time Temperature Precipitation Wind Pressure Humidity
    00:00 +12°C° 0 mm 1 mps 740 mmHg 94%
    01:00 +11°C° 0 mm 1 mps 740 mmHg 95%
    02:00 +11°C° 0 mm 1 mps 740 mmHg 95%
    03:00 +11°C° 0 mm 1 mps 740 mmHg 94%
    04:00 +12°C° 0 mm 1 mps 740 mmHg 94%
    05:00 +12°C° 0 mm 1 mps 741 mmHg 93%
    06:00 +14°C° 0 mm 1 mps 741 mmHg 85%
    07:00 +16°C° 0 mm 1 mps 741 mmHg 77%
    08:00 +19°C° 0 mm 1 mps 741 mmHg 69%
    09:00 +19°C° 0 mm 2 mps 741 mmHg 64%
    10:00 +21°C° 0 mm 2 mps 741 mmHg 58%
    11:00 +23°C° 0 mm 2 mps 741 mmHg 53%
    12:00 +23°C° 0.3 mm 2 mps 741 mmHg 55%
    13:00 +23°C° 0.3 mm 2 mps 741 mmHg 58%
    14:00 +23°C° 0.3 mm 2 mps 741 mmHg 60%
    15:00 +21°C° 0.2 mm 2 mps 741 mmHg 62%
    16:00 +21°C° 0.2 mm 2 mps 741 mmHg 65%
    17:00 +21°C° 0.2 mm 2 mps 741 mmHg 67%
    18:00 +20°C° 0 mm 2 mps 741 mmHg 73%
    19:00 +19°C° 0 mm 1 mps 741 mmHg 79%
    20:00 +16°C° 0 mm 1 mps 741 mmHg 86%
    21:00 +16°C° 0 mm 1 mps 741 mmHg 87%
    22:00 +15°C° 0 mm 1 mps 741 mmHg 88%
    23:00 +14°C° 0 mm 1 mps 741 mmHg 89%
    Show more